[[{"header":{"parameterUnit":"m.s-1","parameterCategory":1,"la1":30.2992,"la2":30.254,"lo1":-89.0895,"lo2":-89.0443,"dy":0.0025,"dx":0.0025,"nx":19,"ny":19,"refTime":"2026-04-16T03:00:00:Z","depth":0,"parameterNumber":2,"parameterNumberName":"U-component_of_WINDS"},"data":[0,0,0,-0.3899,-0.3897,-0.3794,-0.3794,-0.3682,-0.3681,0,0,0,0,0,0,0,0,0,0,0,-0.3941,-0.3941,-0.3899,-0.3897,-0.3794,-0.3794,-0.3682,-0.3681,0,0,0,0,0,0,0,0,0,0,0,-0.3941,-0.3941,-0.3941,-0.3897,-0.3795,-0.3794,-0.3683,-0.3753,0,0,0,0,0,0,0,0,0,0,-0.3849,-0.39,-0.3941,-0.3941,-0.3896,-0.3795,-0.3794,-0.3756,-0.3749,-0.3737,0,-0.373,0,-0.3704,-0.3675,-0.3675,0,0,0,-0.3888,-0.3906,-0.3868,-0.3941,-0.3895,-0.3795,-0.3838,-0.3752,-0.3743,-0.3728,-0.3729,-0.3724,-0.3703,-0.3675,-0.3674,-0.364,-0.3641,0,0,-0.3893,-0.3929,-0.3874,-0.3863,-0.388,-0.3841,-0.3835,-0.3746,-0.375,-0.3728,-0.3721,-0.3701,-0.3674,-0.3673,-0.364,-0.3641,0,0,0,-0.3916,-0.3934,-0.3897,-0.3868,-0.3848,-0.3839,-0.3831,-0.3754,-0.3739,-0.372,-0.3699,-0.3674,-0.3672,-0.364,-0.364,-0.3688,0,0,0,-0.3919,-0.3946,-0.39,-0.3921,-0.385,-0.38,-0.3841,-0.3745,-0.3734,-0.37,-0.3673,-0.3671,-0.3639,-0.364,-0.3686,-0.3705,0,0,0,-0.3944,-0.3949,-0.3939,-0.3923,-0.388,-0.38,-0.378,-0.3742,-0.3722,-0.3675,-0.3671,-0.3639,-0.364,-0.3685,-0.3702,-0.3706,0,0,0,-0.3981,-0.3982,-0.394,-0.3934,-0.3881,-0.3831,-0.378,-0.3741,-0.3707,-0.3673,-0.364,-0.364,-0.3684,-0.37,-0.3705,-0.3717,-0.3725,0,0,-0.4002,-0.3986,-0.398,-0.3939,-0.3906,-0.3844,-0.3818,-0.3752,-0.3715,-0.3667,-0.3666,-0.3687,-0.3701,-0.3706,-0.3761,-0.3768,0,0,0,-0.3999,-0.3995,-0.3978,-0.3947,-0.3898,-0.3857,-0.3792,-0.3768,-0.3726,-0.3698,-0.3689,-0.3697,-0.3698,-0.3702,-0.3708,-0.3706,-0.3644,-0.3644,-0.3644,-0.408,-0.4033,-0.402,-0.3961,-0.3932,-0.3865,-0.3837,-0.3793,-0.3753,-0.3753,-0.3738,-0.3777,-0.3783,-0.3787,-0.3787,-0.3741,-0.3741,-0.3741,-0.3741,-0.4107,-0.4094,-0.4043,-0.4011,-0.3962,-0.3935,-0.3871,-0.3844,-0.3812,-0.3784,-0.3782,-0.3755,-0.3796,-0.3793,-0.3744,-0.3744,-0.3743,-0.3743,-0.3743,-0.4155,-0.414,-0.4112,-0.4063,-0.4031,-0.3971,-0.3943,-0.3899,-0.3857,-0.3856,-0.3836,-0.3835,-0.3828,-0.385,-0.385,-0.385,-0.385,-0.385,-0.385,-0.4215,-0.4181,-0.4163,-0.4112,-0.4087,-0.4048,-0.3983,-0.3957,-0.3917,-0.3887,-0.3886,-0.3847,-0.3809,-0.3801,-0.3852,-0.3852,-0.3852,-0.3851,-0.3851,-0.4259,-0.4242,-0.4214,-0.4189,-0.4126,-0.4097,-0.4042,-0.3994,-0.3966,-0.3954,-0.3915,-0.3895,-0.3874,-0.3869,-0.3861,-0.3925,-0.3925,-0.3925,-0.3925,-0.4299,-0.4285,-0.4246,-0.4209,-0.4168,-0.4116,-0.4086,-0.4036,-0.3981,-0.3961,-0.3946,-0.3932,-0.3929,-0.391,-0.3904,-0.3896,-0.3968,-0.3968,-0.3968,-0.4323,-0.4303,-0.4286,-0.4232,-0.418,-0.4136,-0.4107,-0.4067,-0.4001,-0.3969,-0.3945,-0.3943,-0.392,-0.3915,-0.3881,-0.3873,-0.3857,0,0]},{"header":{"parameterUnit":"m.s-1","parameterCategory":1,"la1":30.2992,"la2":30.254,"lo1":-89.0895,"lo2":-89.0443,"dy":0.0025,"dx":0.0025,"nx":19,"ny":19,"refTime":"2026-04-16T03:00:00:Z","depth":0,"parameterNumber":3,"parameterNumberName":"V-component_of_WINDS"},"data":[0,0,0,3.8511,3.8511,3.8514,3.8514,3.8509,3.8508,0,0,0,0,0,0,0,0,0,0,0,3.8507,3.8507,3.8511,3.8511,3.8514,3.8514,3.8509,3.8508,0,0,0,0,0,0,0,0,0,0,0,3.8507,3.8507,3.8507,3.8511,3.8514,3.8514,3.8509,3.8509,0,0,0,0,0,0,0,0,0,0,3.8508,3.8501,3.8507,3.8507,3.8511,3.8514,3.8514,3.8509,3.8509,3.8504,0,3.85,0,3.8504,3.8508,3.8508,0,0,0,3.8513,3.8501,3.8505,3.8507,3.8511,3.8514,3.8513,3.8509,3.8509,3.8504,3.85,3.85,3.8504,3.8508,3.8508,3.8477,3.8477,0,0,3.8513,3.8505,3.8505,3.8505,3.8506,3.8513,3.8513,3.8509,3.8504,3.85,3.85,3.8504,3.8507,3.8507,3.8478,3.8477,0,0,0,3.8511,3.8504,3.8509,3.8505,3.8506,3.8513,3.8514,3.8504,3.8507,3.85,3.8504,3.8507,3.8507,3.8478,3.8477,3.8459,0,0,0,3.8512,3.8503,3.8509,3.8504,3.8506,3.8506,3.8508,3.8507,3.8507,3.8504,3.8507,3.8507,3.8478,3.8478,3.846,3.845,0,0,0,3.8508,3.8503,3.8503,3.8503,3.8504,3.8506,3.8508,3.8507,3.8509,3.8508,3.8507,3.8478,3.8478,3.8461,3.8452,3.8441,0,0,0,3.8501,3.8483,3.8502,3.8484,3.8504,3.8495,3.8508,3.8501,3.8498,3.8507,3.8478,3.8477,3.8461,3.8453,3.8442,3.8429,3.8424,0,0,3.8474,3.848,3.847,3.8487,3.8473,3.8495,3.8478,3.8481,3.8487,3.848,3.8479,3.8459,3.8452,3.8441,3.8395,3.8391,0,0,0,3.8459,3.8452,3.845,3.8448,3.8452,3.8455,3.8463,3.8465,3.846,3.8483,3.8453,3.8448,3.8442,3.8437,3.8433,3.8428,3.8475,3.8475,3.8475,3.8406,3.8419,3.8404,3.8417,3.8415,3.8425,3.8424,3.8428,3.8438,3.8431,3.8428,3.84,3.8393,3.839,3.8385,3.8423,3.8423,3.8423,3.8423,3.8367,3.836,3.8378,3.837,3.8383,3.8376,3.8385,3.8394,3.8388,3.8402,3.8397,3.8411,3.8385,3.8381,3.8422,3.8422,3.8422,3.8422,3.8422,3.8334,3.8332,3.8337,3.8338,3.8336,3.835,3.8345,3.8356,3.8366,3.8362,3.836,3.8361,3.8362,3.8361,3.8361,3.836,3.836,3.836,3.836,3.8297,3.8303,3.8299,3.8305,3.8307,3.831,3.8322,3.8323,3.8327,3.8335,3.8335,3.8347,3.8381,3.8389,3.8359,3.8359,3.8359,3.8359,3.8359,3.8251,3.8264,3.8258,3.826,3.8269,3.8267,3.8283,3.8285,3.8288,3.8285,3.8299,3.8323,3.8328,3.8331,3.8338,3.8296,3.8296,3.8296,3.8296,3.8222,3.8228,3.8225,3.8228,3.8232,3.8247,3.8238,3.8248,3.826,3.8262,3.827,3.828,3.8283,3.8287,3.8291,3.8298,3.8247,3.8247,3.8247,3.8195,3.8203,3.8193,3.8208,3.8217,3.8224,3.8217,3.8218,3.8234,3.8245,3.8264,3.8266,3.8283,3.8288,3.8297,3.8303,3.8315,0,0]}]]